Location: *
(37.5724°S, 58.0067°E)
Time: 11:14:06
(UTC+00:00)

OAO 2 Rocket - Pass Details

Date: 26 September 2020
Orbit: 676 x 746 km, 35.0° (Epoch: 29 October)

Event Time Altitude Azimuth Distance (km) Brightness Sun altitude
Rises 15:40:14 0° 295° (WNW) 3,026 7.3 -18.7°
Reaches altitude 10° 15:42:40 10° 300° (WNW) 2,115 6.4 -19.2°
Maximum altitude 15:47:26 50° 14° (NNE) 874 3.5 -20.1°
Enters shadow 15:48:20 44° 48° (NE) 948 3.5 -20.3°
